This is the latest recevied weather packets stored in our database for station/object K9ABJ. If no packets are shown the sender has not sent any weather packets the latest 10 day(s).
| Time | Temp. | Humidity | Pressure | Rain* | Wind** | Luminosity | Snow |
|---|---|---|---|---|---|---|---|
| 1787771465 | 27.78° C | 71% | 1013.2 hPa | 0 mm | - | 345 W/m² | - |
| 1787771164 | 28.33° C | 69% | 1013.5 hPa | 0 mm | - | 480 W/m² | - |
| 1787770860 | 27.78° C | 70% | 1013.3 hPa | 0 mm | - | 595 W/m² | - |
| 1787770558 | 27.22° C | 70% | 1013.8 hPa | 0 mm | - | 623 W/m² | - |
| 1787770258 | 27.78° C | 71% | 1013.5 hPa | 0 mm | - | 719 W/m² | - |
| 1787769957 | 27.22° C | 70% | 1013.7 hPa | 0 mm | - | 669 W/m² | - |
| 1787769652 | 27.22° C | 70% | 1013.6 hPa | 0 mm | - | 595 W/m² | - |
| 1787769350 | 26.67° C | 72% | 1013.8 hPa | 0 mm | - | 580 W/m² | - |
| 1787769045 | 27.22° C | 70% | 1013.6 hPa | 0 mm | - | 281 W/m² | - |
| 1787768740 | 27.22° C | 69% | 1013.7 hPa | 0 mm | - | 565 W/m² | - |
| 1787768437 | 27.22° C | 70% | 1013.6 hPa | 0 mm | - | 688 W/m² | - |
| 1787768132 | 26.67° C | 69% | 1013.7 hPa | 0 mm | - | 646 W/m² | - |
| 1787767827 | 27.22° C | 68% | 1013.7 hPa | 0 mm | - | 784 W/m² | - |
| 1787767523 | 26.11° C | 71% | 1013.8 hPa | 0 mm | - | 733 W/m² | - |
| 1787767222 | 26.67° C | 70% | 1014 hPa | 0 mm | - | 595 W/m² | - |
| 1787766921 | 26.11° C | 71% | 1013.8 hPa | 0 mm | - | 642 W/m² | - |
| 1787766616 | 26.11° C | 70% | 1013.9 hPa | 0 mm | - | 712 W/m² | - |
| 1787766315 | 27.22° C | 70% | 1013.8 hPa | 0 mm | - | 494 W/m² | - |
| 1787766015 | 26.11° C | 71% | 1013.9 hPa | 0 mm | - | 703 W/m² | - |
| 1787765712 | 25.56° C | 70% | 1014.1 hPa | 0 mm | - | 635 W/m² | - |
| 1787765408 | 27.22° C | 70% | 1014.2 hPa | 0 mm | - | 596 W/m² | - |
| 1787765101 | 26.11° C | 70% | 1014.3 hPa | 0 mm | - | 607 W/m² | - |
| 1787764801 | 25° C | 72% | 1014.3 hPa | 0 mm | - | 643 W/m² | - |
| 1787764497 | 25° C | 71% | 1014.4 hPa | 0 mm | - | 539 W/m² | - |
| 1787764192 | 25° C | 72% | 1014.6 hPa | 0 mm | - | 619 W/m² | - |
* Rain latest hour (hover to see other rain measurements)
** Current wind speed in m/s (hover to see current wind gust speed)